Regional Weather Roundup
Issued by NWS

Home | Current Version | Previous Version | Text Only | Print | Product List | Glossary Off
Versions: 1 2 3 4 5 6 7 8 9 10 11 12 13 14 15 16 17 18 19 20 21 22 23 24 25 26 27 28 29 30 31 32 33 34 35 36 37 38 39 40 41 42 43 44 45 46 47 48 49 50

901
ASUS43 KMKX 041000
RWRWI

WISCONSIN REGIONAL WEATHER ROUNDUP
NATIONAL WEATHER SERVICE MILWAUKEE/SULLIVAN WI
400 AM CST SUN DEC 04 2016

NOTE: "FAIR" INDICATES FEW OR NO CLOUDS BELOW 12,000 FEET WITH NO
SIGNIFICANT WEATHER AND/OR OBSTRUCTIONS TO VISIBILITY.

WIZ001-002-006>008-014>016-023>028-041100-
NORTHWEST WISCONSIN

CITY           SKY/WX    TMP DP  RH WIND       PRES   REMARKS
SUPERIOR ARPT  LGT SNOW  28  27  94 CALM      30.09F
ASHLAND        CLOUDY    29  22  75 SE7       30.10F WCI  22
HAYWARD        LGT SNOW  28  22  78 SE6       30.08F WCI  22
SIREN          LGT SNOW  29  27  90 SE7       30.06F WCI  22
CUMBERLAND     LGT SNOW  28  27  93 SE6       30.07F WCI  22
RICE LAKE      LGT SNOW  29  26  90 SE8       30.10F WCI  21
CHETEK         LGT SNOW  28  26  89 SE7       30.09F WCI  21
LADYSMITH      LGT SNOW  29  25  85 SE5       30.12F WCI  24
EAU CLAIRE     LGT SNOW  30  27  88 SE6       30.09F FOG     WCI  24
MENOMONIE      LGT SNOW  31  29  94 E8        30.09F WCI  23
NEW RICHMOND   LGT SNOW  30  28  95 SE8       30.06F WCI  22
OSCEOLA        LGT SNOW  31  31 100 SE10      30.08F WCI  22
$$

WIZ003>005-009-010-017-018-041100-
NORTH CENTRAL WISCONSIN

CITY           SKY/WX    TMP DP  RH WIND       PRES   REMARKS
MANITOWISH WTR CLOUDY    26  21  82 S3        30.09F
ARBOR VITAE    CLOUDY    28  22  76 S5        30.10F WCI  23
WOODRUFF       CLOUDY    28  22  76 S5        30.10F WCI  23
RHINELANDER    CLOUDY    27  21  78 S3        30.11F
EAGLE RIVER    CLOUDY    26  20  77 CALM      30.10F
LAND O LAKES   CLOUDY    27  21  80 S3        30.12F
PHILLIPS       CLOUDY    26  22  84 S7        30.09F WCI  19
TOMAHAWK       CLOUDY    26  22  82 S3        30.12F
MEDFORD        FLURRIES  27  23  84 SE5       30.10F WCI  22
MERRILL        CLOUDY    28  22  80 CALM      30.13F
$$

WIZ029-030-035-036-043>047-041100-
CENTRAL WISCONSIN

CITY           SKY/WX    TMP DP  RH WIND       PRES   REMARKS
WAUSAU         CLOUDY    28  21  75 S6        30.13F WCI  22
MOSINEE        CLOUDY    28  23  80 SE6       30.14F WCI  22
MARSHFIELD     CLOUDY    28  23  81 S5        30.11F WCI  23
STEVENS POINT  CLOUDY    27  22  80 SE5       30.16F WCI  22
WAUPACA        MOCLDY    31  24  77 CALM      30.18F
WAUTOMA        CLOUDY    29  26  89 E3        30.17F
WISC RAPIDS    CLOUDY    29  24  82 SE7       30.16F WCI  22
CAMP DOUGLAS   NOT AVBL
$$

WIZ011>013-019>022-031-037>040-048>050-041100-
NORTHEAST WISCONSIN

CITY           SKY/WX    TMP DP  RH WIND       PRES   REMARKS
ANTIGO         CLOUDY    26  22  84 S6        30.13F WCI  19
SHAWANO        CLOUDY    31  24  74 S3        30.18F
OCONTO         CLOUDY    30  23  73 SW3       30.20F
STURGEON BAY   CLOUDY    31  25  78 SW3         N/A
GREEN BAY      CLOUDY    32  26  78 S5        30.19F WCI  27
MANITOWOC      NOT AVBL
APPLETON       CLOUDY    30  23  74 S3        30.16F
CLINTONVILLE   CLOUDY    30  23  74 SE5       30.18F WCI  25
OSHKOSH        CLOUDY    30  24  78 S6        30.18F WCI  24
$$

WIZ032>034-041-042-053>061-041100-
SOUTHWEST WISCONSIN

CITY           SKY/WX    TMP DP  RH WIND       PRES   REMARKS
LA CROSSE      LGT SNOW  34  31  88 SE7       30.12F FOG     WCI  28
SPARTA         CLOUDY    31  29  93 E3        30.14F
VIROQUA        CLOUDY    30  30 100 SE8       30.12F WCI  22
BOSCOBEL       LGT SNOW  34  30  85 CALM      30.15F FOG
PRAIRIE DU CHI LGT SNOW  32  31  93 E7        30.13F WCI  26
PLATTEVILLE    CLOUDY    32  32 100 SE5       30.14F WCI  27
$$

WIZ056-057-062-063-064-067-068-041100-
SOUTH CENTRAL WISCONSIN

CITY           SKY/WX    TMP DP  RH WIND       PRES   REMARKS
REEDSBURG      DRIZZLE   31  28  88 CALM      30.15F
BARABOO/DELLS  CLOUDY    31  26  82 S7        30.15F WCI  24
LONE ROCK      LGT SNOW  32  29  88 E6        30.17F FOG     WCI  26
MINERAL POINT  LGT SNOW  32  32 100 SE6       30.14S WCI  26
MADISON        LGT SNOW  31  29  92 SE6       30.16F FOG     WCI  25
MIDDLETON      CLOUDY    32  32  99 S3        30.17F
WATERTOWN      LGT SNOW  30  29  94 S5        30.19S WCI  25
MONROE         CLOUDY    32  30  93 SE8       30.15F WCI  25
JANESVILLE     CLOUDY    34  30  86 SE6       30.17F WCI  29
$$

WIZ051-052-058>065-066-070>072-041100-
SOUTHEAST WISCONSIN

CITY           SKY/WX    TMP DP  RH WIND       PRES   REMARKS
MILWAUKEE      CLOUDY    29  23  78 CALM      30.20F
WAUKESHA       CLOUDY    28  23  80 S6        30.20F WCI  22
MILWAUKEE/TIMM CLOUDY    30  21  69 CALM      30.21F
RACINE         CLOUDY    29  25  85 CALM      30.22F
BURLINGTON     CLOUDY    30  27  86 CALM      30.19F
KENOSHA        CLOUDY    31  26  82 CALM      30.20F
FOND DU LAC    CLOUDY    30  23  75 S7        30.19F WCI  23
SHEBOYGAN      CLOUDY    29  25  85 CALM      30.19F
WEST BEND      MOCLDY    28  27  93 CALM      30.19F
JUNEAU         CLOUDY    29  25  85 SE7       30.19F WCI  22
$$

LSZ147-162-041100-
LAKE SUPERIOR

STATION/POSITION TIME  TEMP    WIND        PRES    WAVE
                       AIR SEA DIR/SP/G            HT/PER
                 (UTC) (F)     (DEG/KT/KT) (MB)    (FT/S)
DEVILS ISLAND    0900   31     180/  8/ 11 1021.2F
PORT WING        0940   30     140/  4/  7 1019.3F
SAXON HARBOR     0930   29     190/  2/  5 1020.0F
$$

LMZ867-665-643>646-041100-
LAKE MICHIGAN

STATION/POSITION TIME  TEMP    WIND        PRES    WAVE
                       AIR SEA DIR/SP/G            HT/PER
                 (UTC) (F)     (DEG/KT/KT) (MB)    (FT/S)
CHAMBERS ISLAND  0940   33     180/  2/  7 1022.0F
NORTHPORT PIER   0940   32      CALM  /  4 1022.4F
SISTER BAY       0823   33     220/ 11/ 14   N/A
ALGOMA LAKESHORE 0836          270/  5/  6   N/A
KEWAUNEE LAKESHO 0930   31     220/  3/  5 1022.4F
SHEBOYGAN LAKESH 0900   32     250/  3/  4 1024.3F
PORT WASHINGTON  0930   31     260/  4/  5 1023.7F
MILWAUKEE LAKESH 0930   33     200/  7/  8   N/A
S MID LAKE BUOY  0850   36 48  220/  2/  4 1024.0F   0
KENOSHA   LAKESH 0900   32     260/  3/  5 1023.7
$$

TC  - TEMPERATURE IN CELSIUS
VSB - VISIBILITY IN STATUTE MILES
WCI - WIND CHILL INDEX
HX  - HEAT INDEX





USA.gov is the U.S. government's official web portal to all federal, state and local government web resources and services.